| time (UTC) | temp C | wind direction | speed KPH | gust KPH | rain 1hr cm | rain 24hr cm | rain mn cm | humidity % | barometer mb |
| 20260831072857 | 18 | 257 | 0.0 | 0.0 | 0.00 | 0.00 | 0.00 | 48 | 1028.9 |
| 20260831072353 | 18 | 198 | 1.6 | 1.6 | 0.00 | 0.00 | 0.00 | 47 | 1028.9 |
| 20260831071849 | 18 | 246 | 0.0 | 1.6 | 0.00 | 0.00 | 0.00 | 46 | 1028.7 |
| 20260831071348 | 18 | 233 | 1.6 | 1.6 | 0.00 | 0.00 | 0.00 | 46 | 1028.7 |
| 20260831070843 | 18 | 261 | 0.0 | 0.0 | 0.00 | 0.00 | 0.00 | 46 | 1028.8 |
| 20260831070342 | 18 | 248 | 1.6 | 1.6 | 0.00 | 0.00 | 0.00 | 46 | 1028.8 |
| 20260831065842 | 18 | 165 | 1.6 | 1.6 | 0.00 | 0.00 | 0.00 | 45 | 1028.8 |
| 20260831065339 | 19 | 235 | 1.6 | 1.6 | 0.00 | 0.00 | 0.00 | 45 | 1029.0 |
| 20260831064835 | 19 | 223 | 1.6 | 3.2 | 0.00 | 0.00 | 0.00 | 45 | 1028.8 |
| 20260831064330 | 19 | 309 | 0.0 | 0.0 | 0.00 | 0.00 | 0.00 | 44 | 1028.9 |
| 20260831063826 | 19 | 286 | 0.0 | 0.0 | 0.00 | 0.00 | 0.00 | 44 | 1028.8 |
| 20260831063326 | 19 | 244 | 3.2 | 3.2 | 0.00 | 0.00 | 0.00 | 43 | 1028.9 |
| 20260831062821 | 20 | 311 | 0.0 | 0.0 | 0.00 | 0.00 | 0.00 | 43 | 1028.6 |
| 20260831062316 | 20 | 238 | 1.6 | 3.2 | 0.00 | 0.00 | 0.00 | 43 | 1028.8 |
| 20260831061815 | 20 | 300 | 1.6 | 3.2 | 0.00 | 0.00 | 0.00 | 46 | 1028.7 |
| 20260831061314 | 20 | 228 | 3.2 | 3.2 | 0.00 | 0.00 | 0.00 | 44 | 1028.7 |
| 20260831060811 | 20 | 21 | 0.0 | 1.6 | 0.00 | 0.00 | 0.00 | 45 | 1028.6 |
| 20260831060310 | 20 | 317 | 1.6 | 1.6 | 0.00 | 0.00 | 0.00 | 45 | 1028.6 |
| 20260831055810 | 20 | 358 | 3.2 | 3.2 | 0.00 | 0.00 | 0.00 | 45 | 1028.6 |
| 20260831055306 | 20 | 27 | 0.0 | 0.0 | 0.00 | 0.00 | 0.00 | 45 | 1028.6 |
| 20260831054800 | 20 | 324 | 0.0 | 0.0 | 0.00 | 0.00 | 0.00 | 42 | 1028.9 |
| 20260831054255 | 20 | 279 | 1.6 | 3.2 | 0.00 | 0.00 | 0.00 | 42 | 1028.8 |
| 20260831053754 | 20 | 231 | 1.6 | 1.6 | 0.00 | 0.00 | 0.00 | 42 | 1028.7 |
| 20260831053253 | 20 | 14 | 1.6 | 1.6 | 0.00 | 0.00 | 0.00 | 43 | 1029.0 |
| 20260831052747 | 20 | 85 | 4.8 | 8.0 | 0.00 | 0.00 | 0.00 | 41 | 1028.9 |
| 20260831052247 | 20 | 331 | 0.0 | 0.0 | 0.00 | 0.00 | 0.00 | 43 | 1028.9 |
| 20260831051744 | 20 | 346 | 3.2 | 3.2 | 0.00 | 0.00 | 0.00 | 42 | 1028.8 |
| 20260831051244 | 21 | 344 | 3.2 | 3.2 | 0.00 | 0.00 | 0.00 | 42 | 1028.7 |
| 20260831050739 | 21 | 38 | 4.8 | 4.8 | 0.00 | 0.00 | 0.00 | 42 | 1028.9 |
| 20260831050237 | 21 | 324 | 1.6 | 1.6 | 0.00 | 0.00 | 0.00 | 40 | 1028.9 |
| 20260831045732 | 21 | 319 | 1.6 | 1.6 | 0.00 | 0.00 | 0.00 | 38 | 1029.0 |
| 20260831045227 | 21 | 311 | 1.6 | 1.6 | 0.00 | 0.00 | 0.00 | 39 | 1029.0 |
| 20260831044722 | 21 | 317 | 1.6 | 1.6 | 0.00 | 0.00 | 0.00 | 40 | 1028.8 |
| 20260831044217 | 21 | 326 | 1.6 | 1.6 | 0.00 | 0.00 | 0.00 | 43 | 1029.2 |
| 20260831043713 | 22 | 205 | 4.8 | 4.8 | 0.00 | 0.00 | 0.00 | 42 | 1029.1 |
| 20260831043208 | 21 | 327 | 1.6 | 1.6 | 0.00 | 0.00 | 0.00 | 41 | 1029.1 |
| 20260831042707 | 21 | 53 | 1.6 | 1.6 | 0.00 | 0.00 | 0.00 | 43 | 1029.2 |
| 20260831042202 | 22 | 298 | 0.0 | 1.6 | 0.00 | 0.00 | 0.00 | 43 | 1029.1 |
| 20260831041657 | 21 | 308 | 0.0 | 0.0 | 0.00 | 0.00 | 0.00 | 44 | 1029.4 |
| 20260831041156 | 21 | 0 | 3.2 | 3.2 | 0.00 | 0.00 | 0.00 | 48 | 1029.1 |
| 20260831040652 | 21 | 40 | 1.6 | 3.2 | 0.00 | 0.00 | 0.00 | 46 | 1029.3 |
| 20260831040150 | 22 | 57 | 4.8 | 4.8 | 0.00 | 0.00 | 0.00 | 45 | 1029.2 |
| 20260831035649 | 22 | 356 | 1.6 | 1.6 | 0.00 | 0.00 | 0.00 | 45 | 1029.5 |
| 20260831035144 | 22 | 293 | 1.6 | 3.2 | 0.00 | 0.00 | 0.00 | 45 | 1029.2 |
| 20260831034642 | 21 | 312 | 0.0 | 0.0 | 0.00 | 0.00 | 0.00 | 45 | 1029.7 |
| 20260831034138 | 21 | 0 | 4.8 | 4.8 | 0.00 | 0.00 | 0.00 | 46 | 1029.7 |
| 20260831033634 | 22 | 339 | 8.0 | 12.9 | 0.00 | 0.00 | 0.00 | 44 | 1029.5 |
| 20260831033129 | 22 | 25 | 1.6 | 3.2 | 0.00 | 0.00 | 0.00 | 44 | 1029.7 |
| 20260831032628 | 22 | 295 | 0.0 | 1.6 | 0.00 | 0.00 | 0.00 | 43 | 1029.9 |
| 20260831032125 | 22 | 308 | 1.6 | 1.6 | 0.00 | 0.00 | 0.00 | 41 | 1029.9 |
| 20260831031624 | 23 | 305 | 1.6 | 3.2 | 0.00 | 0.00 | 0.00 | 41 | 1030.0 |
| 20260831031124 | 22 | 349 | 1.6 | 1.6 | 0.00 | 0.00 | 0.00 | 40 | 1030.1 |
| 20260831030622 | 22 | 326 | 0.0 | 1.6 | 0.00 | 0.00 | 0.00 | 43 | 1030.1 |
| 20260831030122 | 22 | 281 | 1.6 | 3.2 | 0.00 | 0.00 | 0.00 | 44 | 1030.4 |
| 20260831025620 | 21 | 230 | 1.6 | 3.2 | 0.00 | 0.00 | 0.00 | 42 | 1030.4 |
| 20260831025115 | 21 | 310 | 1.6 | 1.6 | 0.00 | 0.00 | 0.00 | 43 | 1030.5 |
| 20260831024612 | 21 | 201 | 1.6 | 1.6 | 0.00 | 0.00 | 0.00 | 45 | 1030.5 |
| 20260831024110 | 22 | 297 | 1.6 | 3.2 | 0.00 | 0.00 | 0.00 | 43 | 1030.6 |
| 20260831023609 | 22 | 326 | 1.6 | 3.2 | 0.00 | 0.00 | 0.00 | 45 | 1030.7 |
| 20260831023108 | 22 | 240 | 3.2 | 3.2 | 0.00 | 0.00 | 0.00 | 46 | 1030.8 |
| 20260831022603 | 22 | 54 | 0.0 | 1.6 | 0.00 | 0.00 | 0.00 | 51 | 1030.7 |
| 20260831022058 | 22 | 325 | 1.6 | 1.6 | 0.00 | 0.00 | 0.00 | 50 | 1030.9 |
| 20260831021557 | 21 | 261 | 0.0 | 1.6 | 0.00 | 0.00 | 0.00 | 51 | 1031.2 |
| 20260831021053 | 21 | 253 | 1.6 | 1.6 | 0.00 | 0.00 | 0.00 | 50 | 1031.2 |
| 20260831020548 | 21 | 309 | 1.6 | 1.6 | 0.00 | 0.00 | 0.00 | 49 | 1031.2 |
| 20260831020043 | 22 | 316 | 0.0 | 0.0 | 0.00 | 0.00 | 0.00 | 53 | 1031.3 |
| 20260831015539 | 21 | 283 | 0.0 | 1.6 | 0.00 | 0.00 | 0.00 | 52 | 1031.4 |
| 20260831015033 | 20 | 297 | 0.0 | 0.0 | 0.00 | 0.00 | 0.00 | 55 | 1031.7 |
| 20260831014528 | 21 | 220 | 3.2 | 3.2 | 0.00 | 0.00 | 0.00 | 50 | 1031.8 |
| 20260831014024 | 21 | 343 | 1.6 | 1.6 | 0.00 | 0.00 | 0.00 | 53 | 1031.9 |
| 20260831013519 | 20 | 260 | 0.0 | 1.6 | 0.00 | 0.00 | 0.00 | 54 | 1031.9 |
| 20260831013014 | 20 | 199 | 3.2 | 3.2 | 0.00 | 0.00 | 0.00 | 54 | 1031.9 |
| 20260831012509 | 20 | 335 | 0.0 | 1.6 | 0.00 | 0.00 | 0.00 | 56 | 1032.1 |
| 20260831012008 | 19 | 63 | 1.6 | 1.6 | 0.00 | 0.00 | 0.00 | 56 | 1032.0 |
| 20260831011503 | 18 | 106 | 3.2 | 3.2 | 0.00 | 0.00 | 0.00 | 58 | 1032.4 |
| 20260831010959 | 20 | 10 | 3.2 | 3.2 | 0.00 | 0.00 | 0.00 | 57 | 1032.5 |
| 20260831010458 | 18 | 321 | 0.0 | 0.0 | 0.00 | 0.00 | 0.00 | 59 | 1032.5 |
| 20260831005949 | 18 | 39 | 1.6 | 1.6 | 0.00 | 0.00 | 0.00 | 58 | 1032.5 |
| 20260831005445 | 18 | 245 | 1.6 | 1.6 | 0.00 | 0.00 | 0.00 | 59 | 1032.4 |
| 20260831004944 | 20 | 316 | 1.6 | 3.2 | 0.00 | 0.00 | 0.00 | 55 | 1032.5 |
| 20260831004440 | 18 | 343 | 0.0 | 0.0 | 0.00 | 0.00 | 0.00 | 58 | 1032.8 |
| 20260831003936 | 18 | 101 | 1.6 | 1.6 | 0.00 | 0.00 | 0.00 | 57 | 1032.3 |
| 20260831003431 | 18 | 6 | 1.6 | 3.2 | 0.00 | 0.00 | 0.00 | 54 | 1032.6 |
| 20260831002931 | 18 | 10 | 0.0 | 1.6 | 0.00 | 0.00 | 0.00 | 55 | 1032.8 |
| 20260831002430 | 17 | 347 | 1.6 | 1.6 | 0.00 | 0.00 | 0.00 | 57 | 1032.5 |
| 20260831001926 | 17 | 22 | 1.6 | 1.6 | 0.00 | 0.00 | 0.00 | 59 | 1032.5 |
| 20260831001421 | 16 | 11 | 3.2 | 3.2 | 0.00 | 0.00 | 0.00 | 61 | 1033.0 |
| 20260831000918 | 16 | 15 | 3.2 | 3.2 | 0.00 | 0.00 | 0.00 | 60 | 1032.8 |
| 20260831000413 | 15 | 306 | 1.6 | 1.6 | 0.00 | 0.00 | 0.00 | 62 | 1032.8 |
| 20260830235912 | 16 | 327 | 0.0 | 0.0 | 0.00 | 0.00 | 0.00 | 60 | 1032.8 |
| 20260830235407 | 15 | 232 | 3.2 | 3.2 | 0.00 | 0.00 | 0.00 | 60 | 1033.0 |
| 20260830234902 | 15 | 227 | 3.2 | 3.2 | 0.00 | 0.00 | 0.00 | 62 | 1032.9 |
| 20260830234357 | 15 | 255 | 1.6 | 1.6 | 0.00 | 0.00 | 0.00 | 61 | 1033.1 |
| 20260830233853 | 15 | 256 | 1.6 | 1.6 | 0.00 | 0.00 | 0.00 | 64 | 1032.9 |
| 20260830233348 | 14 | 53 | 0.0 | 1.6 | 0.00 | 0.00 | 0.00 | 65 | 1033.2 |
| 20260830232844 | 14 | 1 | 1.6 | 1.6 | 0.00 | 0.00 | 0.00 | 67 | 1033.2 |
| 20260830232339 | 14 | 339 | 0.0 | 0.0 | 0.00 | 0.00 | 0.00 | 66 | 1033.1 |
| 20260830231836 | 13 | 2 | 0.0 | 0.0 | 0.00 | 0.00 | 0.00 | 68 | 1033.1 |
| 20260830231331 | 12 | 311 | 0.0 | 1.6 | 0.00 | 0.00 | 0.00 | 71 | 1033.1 |
| 20260830230830 | 12 | 32 | 1.6 | 1.6 | 0.00 | 0.00 | 0.00 | 70 | 1033.1 |
| 20260830230326 | 12 | 8 | 1.6 | 1.6 | 0.00 | 0.00 | 0.00 | 70 | 1033.2 |
| 20260830225826 | 12 | 4 | 0.0 | 0.0 | 0.00 | 0.00 | 0.00 | 71 | 1033.1 |
| 20260830225320 | 12 | 54 | 1.6 | 3.2 | 0.00 | 0.00 | 0.00 | 70 | 1033.2 |
| 20260830224815 | 12 | 331 | 0.0 | 0.0 | 0.00 | 0.00 | 0.00 | 70 | 1033.2 |
| 20260830224309 | 11 | 336 | 0.0 | 1.6 | 0.00 | 0.00 | 0.00 | 70 | 1033.2 |
| 20260830223806 | 12 | 283 | 0.0 | 1.6 | 0.00 | 0.00 | 0.00 | 71 | 1033.4 |
| 20260830223302 | 11 | 5 | 0.0 | 0.0 | 0.00 | 0.00 | 0.00 | 76 | 1033.1 |
| 20260830222801 | 10 | 349 | 0.0 | 0.0 | 0.00 | 0.00 | 0.00 | 76 | 1033.3 |
| 20260830222257 | 10 | 33 | 0.0 | 0.0 | 0.00 | 0.00 | 0.00 | 75 | 1033.1 |
| 20260830221752 | 10 | 17 | 1.6 | 1.6 | 0.00 | 0.00 | 0.00 | 77 | 1033.4 |
| 20260830221249 | 9 | 6 | 0.0 | 1.6 | 0.00 | 0.00 | 0.00 | 79 | 1033.2 |
| 20260830220744 | 9 | 339 | 0.0 | 1.6 | 0.00 | 0.00 | 0.00 | 81 | 1033.5 |
| 20260830220243 | 8 | 318 | 0.0 | 0.0 | 0.00 | 0.00 | 0.00 | 84 | 1033.4 |
| 20260830215741 | 8 | 0 | 0.0 | 0.0 | 0.00 | 0.00 | 0.00 | 89 | 1033.4 |
| 20260830215236 | 7 | 57 | 0.0 | 0.0 | 0.00 | 0.00 | 0.00 | 92 | 1033.3 |
| 20260830214731 | 7 | 325 | 0.0 | 1.6 | 0.00 | 0.00 | 0.00 | 98 | 1033.0 |
| 20260830214231 | 7 | 298 | 0.0 | 1.6 | 0.00 | 0.00 | 0.00 | 99 | 1033.1 |
| 20260830213730 | 6 | 89 | 1.6 | 1.6 | 0.00 | 0.00 | 0.00 | 99 | 1032.9 |
| 20260830213226 | 5 | 67 | 0.0 | 1.6 | 0.00 | 0.00 | 0.00 | 99 | 1033.1 |
| 20260830212721 | 4 | 317 | 0.0 | 0.0 | 0.00 | 0.00 | 0.00 | 99 | 1032.9 |
| 20260830212217 | 3 | 254 | 0.0 | 1.6 | 0.00 | 0.00 | 0.00 | 99 | 1032.9 |
| 20260830211712 | 3 | 289 | 0.0 | 0.0 | 0.00 | 0.00 | 0.00 | 99 | 1032.8 |
| 20260830211210 | 3 | 290 | 0.0 | 0.0 | 0.00 | 0.00 | 0.00 | 99 | 1032.6 |
| 20260830210707 | 3 | 274 | 0.0 | 0.0 | 0.00 | 0.00 | 0.00 | 99 | 1032.8 |
| 20260830210206 | 2 | 291 | 0.0 | 0.0 | 0.00 | 0.00 | 0.00 | 99 | 1032.6 |
| 20260830205703 | 2 | 288 | 0.0 | 0.0 | 0.00 | 0.00 | 0.00 | 99 | 1032.5 |
| 20260830205158 | 1 | 293 | 0.0 | 0.0 | 0.00 | 0.00 | 0.00 | 99 | 1032.4 |
| 20260830204658 | 1 | 285 | 0.0 | 0.0 | 0.00 | 0.00 | 0.00 | 99 | 1032.3 |
| 20260830204157 | 1 | 296 | 0.0 | 0.0 | 0.00 | 0.00 | 0.00 | 99 | 1032.3 |
| 20260830203653 | 1 | 289 | 0.0 | 0.0 | 0.00 | 0.00 | 0.00 | 99 | 1032.3 |
| 20260830203149 | 1 | 294 | 0.0 | 0.0 | 0.00 | 0.00 | 0.00 | 99 | 1032.1 |
| 20260830202648 | 1 | 292 | 0.0 | 0.0 | 0.00 | 0.00 | 0.00 | 99 | 1032.0 |
| 20260830202143 | 1 | 284 | 0.0 | 0.0 | 0.00 | 0.00 | 0.00 | 99 | 1031.9 |
| 20260830201643 | 1 | 279 | 0.0 | 0.0 | 0.00 | 0.00 | 0.00 | 99 | 1032.0 |
| 20260830201138 | 1 | 279 | 0.0 | 0.0 | 0.00 | 0.00 | 0.00 | 99 | 1032.0 |
| 20260830200634 | 2 | 277 | 0.0 | 0.0 | 0.00 | 0.00 | 0.00 | 99 | 1032.0 |
| 20260830200133 | 2 | 212 | 0.0 | 1.6 | 0.00 | 0.00 | 0.00 | 99 | 1031.8 |
| 20260830195628 | 1 | 262 | 0.0 | 0.0 | 0.00 | 0.00 | 0.00 | 99 | 1031.8 |
| 20260830195121 | 1 | 289 | 0.0 | 0.0 | 0.00 | 0.00 | 0.00 | 99 | 1031.7 |
| 20260830194620 | 1 | 289 | 0.0 | 0.0 | 0.00 | 0.00 | 0.00 | 99 | 1031.8 |
| 20260830194115 | 1 | 289 | 0.0 | 0.0 | 0.00 | 0.00 | 0.00 | 99 | 1031.7 |
| 20260830193614 | 1 | 289 | 0.0 | 0.0 | 0.00 | 0.00 | 0.00 | 99 | 1031.5 |
| 20260830193109 | 1 | 286 | 0.0 | 0.0 | 0.00 | 0.00 | 0.00 | 99 | 1031.4 |
| 20260830192605 | 1 | 282 | 0.0 | 0.0 | 0.00 | 0.00 | 0.00 | 99 | 1031.5 |
| 20260830192105 | 1 | 285 | 0.0 | 0.0 | 0.00 | 0.00 | 0.00 | 99 | 1031.4 |
| 20260830191600 | 1 | 272 | 0.0 | 0.0 | 0.00 | 0.00 | 0.00 | 99 | 1031.5 |
| 20260830191056 | 1 | 258 | 0.0 | 0.0 | 0.00 | 0.00 | 0.00 | 99 | 1031.4 |
| 20260830190551 | 1 | 279 | 0.0 | 0.0 | 0.00 | 0.00 | 0.00 | 99 | 1031.4 |
| 20260830190046 | 1 | 270 | 0.0 | 0.0 | 0.00 | 0.00 | 0.00 | 99 | 1031.6 |
| 20260830185539 | 2 | 292 | 0.0 | 0.0 | 0.00 | 0.00 | 0.00 | 99 | 1031.3 |
| 20260830185035 | 2 | 284 | 0.0 | 0.0 | 0.00 | 0.00 | 0.00 | 99 | 1031.4 |
| 20260830184534 | 1 | 282 | 0.0 | 0.0 | 0.00 | 0.00 | 0.00 | 99 | 1031.2 |
| 20260830184028 | 1 | 289 | 0.0 | 0.0 | 0.00 | 0.00 | 0.00 | 98 | 1031.4 |
| 20260830183523 | 2 | 289 | 0.0 | 0.0 | 0.00 | 0.00 | 0.00 | 98 | 1031.2 |
| 20260830183019 | 1 | 289 | 0.0 | 0.0 | 0.00 | 0.00 | 0.00 | 99 | 1031.0 |
| 20260830182514 | 1 | 294 | 0.0 | 0.0 | 0.00 | 0.00 | 0.00 | 99 | 1031.0 |
| 20260830182010 | 1 | 289 | 0.0 | 0.0 | 0.00 | 0.00 | 0.00 | 98 | 1031.3 |
| 20260830181506 | 2 | 289 | 0.0 | 0.0 | 0.00 | 0.00 | 0.00 | 98 | 1031.5 |
| 20260830181006 | 2 | 289 | 0.0 | 0.0 | 0.00 | 0.00 | 0.00 | 98 | 1031.3 |
| 20260830180500 | 2 | 289 | 0.0 | 0.0 | 0.00 | 0.00 | 0.00 | 98 | 1031.4 |
| 20260830175958 | 2 | 289 | 0.0 | 0.0 | 0.00 | 0.00 | 0.00 | 98 | 1031.5 |
| 20260830175458 | 2 | 289 | 0.0 | 0.0 | 0.00 | 0.00 | 0.00 | 98 | 1031.0 |
| 20260830174953 | 2 | 289 | 0.0 | 0.0 | 0.00 | 0.00 | 0.00 | 98 | 1031.4 |
| 20260830174449 | 2 | 285 | 0.0 | 0.0 | 0.00 | 0.00 | 0.00 | 98 | 1031.2 |
| 20260830173944 | 2 | 285 | 0.0 | 0.0 | 0.00 | 0.00 | 0.00 | 98 | 1031.3 |
| 20260830173440 | 2 | 279 | 0.0 | 0.0 | 0.00 | 0.00 | 0.00 | 98 | 1031.2 |
| 20260830172935 | 2 | 290 | 0.0 | 0.0 | 0.00 | 0.00 | 0.00 | 98 | 1031.4 |
| 20260830172432 | 2 | 289 | 0.0 | 0.0 | 0.00 | 0.00 | 0.00 | 98 | 1031.2 |
| 20260830171927 | 2 | 285 | 0.0 | 0.0 | 0.00 | 0.00 | 0.00 | 98 | 1031.3 |
| 20260830171422 | 2 | 282 | 0.0 | 0.0 | 0.00 | 0.00 | 0.00 | 98 | 1031.4 |
| 20260830170922 | 2 | 283 | 0.0 | 0.0 | 0.00 | 0.00 | 0.00 | 98 | 1031.3 |
| 20260830170417 | 3 | 278 | 0.0 | 0.0 | 0.00 | 0.00 | 0.00 | 98 | 1031.0 |
| 20260830165915 | 3 | 273 | 0.0 | 0.0 | 0.00 | 0.00 | 0.00 | 98 | 1031.4 |
| 20260830165411 | 3 | 265 | 0.0 | 0.0 | 0.00 | 0.00 | 0.00 | 98 | 1031.2 |
| 20260830164907 | 3 | 281 | 0.0 | 0.0 | 0.00 | 0.00 | 0.00 | 97 | 1031.3 |
| 20260830164403 | 3 | 284 | 0.0 | 0.0 | 0.00 | 0.00 | 0.00 | 97 | 1031.2 |
| 20260830163859 | 3 | 284 | 0.0 | 0.0 | 0.00 | 0.00 | 0.00 | 97 | 1031.4 |
| 20260830163356 | 3 | 282 | 0.0 | 0.0 | 0.00 | 0.00 | 0.00 | 97 | 1031.3 |
| 20260830162849 | 3 | 276 | 0.0 | 0.0 | 0.00 | 0.00 | 0.00 | 97 | 1031.5 |
| 20260830162345 | 3 | 292 | 0.0 | 0.0 | 0.00 | 0.00 | 0.00 | 97 | 1031.2 |
| 20260830161845 | 3 | 291 | 0.0 | 0.0 | 0.00 | 0.00 | 0.00 | 97 | 1031.4 |
| 20260830161344 | 3 | 275 | 0.0 | 0.0 | 0.00 | 0.00 | 0.00 | 97 | 1031.4 |
| 20260830160840 | 3 | 285 | 0.0 | 0.0 | 0.00 | 0.00 | 0.00 | 97 | 1031.4 |
| 20260830160335 | 3 | 281 | 0.0 | 0.0 | 0.00 | 0.00 | 0.00 | 97 | 1031.3 |
| 20260830155831 | 3 | 281 | 0.0 | 0.0 | 0.00 | 0.00 | 0.00 | 97 | 1031.6 |
| 20260830155327 | 3 | 283 | 0.0 | 0.0 | 0.00 | 0.00 | 0.00 | 97 | 1031.3 |
| 20260830154822 | 3 | 291 | 0.0 | 0.0 | 0.00 | 0.00 | 0.00 | 97 | 1031.4 |
| 20260830154317 | 3 | 281 | 0.0 | 0.0 | 0.00 | 0.00 | 0.00 | 97 | 1031.5 |
| 20260830153814 | 3 | 288 | 0.0 | 0.0 | 0.00 | 0.00 | 0.00 | 96 | 1031.6 |
| 20260830153309 | 3 | 256 | 0.0 | 0.0 | 0.00 | 0.00 | 0.00 | 96 | 1031.6 |
| 20260830152808 | 4 | 285 | 0.0 | 0.0 | 0.00 | 0.00 | 0.00 | 96 | 1031.2 |
| 20260830152305 | 4 | 277 | 0.0 | 0.0 | 0.00 | 0.00 | 0.00 | 96 | 1031.5 |
| 20260830151803 | 3 | 273 | 0.0 | 0.0 | 0.00 | 0.00 | 0.00 | 96 | 1031.2 |
| 20260830151302 | 3 | 293 | 0.0 | 0.0 | 0.00 | 0.00 | 0.00 | 96 | 1031.3 |
| 20260830150757 | 4 | 287 | 0.0 | 0.0 | 0.00 | 0.00 | 0.00 | 96 | 1031.3 |
| 20260830150256 | 4 | 275 | 0.0 | 0.0 | 0.00 | 0.00 | 0.00 | 96 | 1031.4 |
| 20260830145751 | 4 | 285 | 0.0 | 0.0 | 0.00 | 0.00 | 0.00 | 96 | 1031.5 |
| 20260830145247 | 4 | 277 | 0.0 | 0.0 | 0.00 | 0.00 | 0.00 | 96 | 1031.7 |
| 20260830144742 | 4 | 295 | 0.0 | 0.0 | 0.00 | 0.00 | 0.00 | 95 | 1031.7 |
| 20260830144238 | 4 | 287 | 0.0 | 0.0 | 0.00 | 0.00 | 0.00 | 95 | 1031.6 |
| 20260830143734 | 4 | 298 | 0.0 | 0.0 | 0.00 | 0.00 | 0.00 | 95 | 1031.6 |
| 20260830143232 | 5 | 298 | 0.0 | 0.0 | 0.00 | 0.00 | 0.00 | 95 | 1031.6 |
| 20260830142727 | 5 | 305 | 0.0 | 0.0 | 0.00 | 0.00 | 0.00 | 95 | 1031.5 |
| 20260830142222 | 5 | 278 | 0.0 | 0.0 | 0.00 | 0.00 | 0.00 | 95 | 1031.6 |
| 20260830141717 | 5 | 295 | 0.0 | 0.0 | 0.00 | 0.00 | 0.00 | 95 | 1031.6 |
| 20260830141213 | 5 | 296 | 0.0 | 0.0 | 0.00 | 0.00 | 0.00 | 94 | 1031.4 |
| 20260830140707 | 5 | 281 | 0.0 | 0.0 | 0.00 | 0.00 | 0.00 | 95 | 1031.7 |
| 20260830140202 | 5 | 273 | 0.0 | 0.0 | 0.00 | 0.00 | 0.00 | 94 | 1031.6 |
| 20260830135657 | 5 | 294 | 0.0 | 0.0 | 0.00 | 0.00 | 0.00 | 94 | 1031.7 |
| 20260830135152 | 5 | 305 | 0.0 | 0.0 | 0.00 | 0.00 | 0.00 | 94 | 1031.6 |
| 20260830134648 | 5 | 293 | 0.0 | 0.0 | 0.00 | 0.00 | 0.00 | 94 | 1031.7 |
| 20260830134143 | 5 | 292 | 0.0 | 0.0 | 0.00 | 0.00 | 0.00 | 93 | 1031.7 |
| 20260830133639 | 5 | 274 | 0.0 | 0.0 | 0.00 | 0.00 | 0.00 | 94 | 1031.7 |
| 20260830133134 | 5 | 301 | 0.0 | 0.0 | 0.00 | 0.00 | 0.00 | 93 | 1031.8 |
| 20260830132630 | 5 | 292 | 0.0 | 0.0 | 0.00 | 0.00 | 0.00 | 93 | 1031.6 |
| 20260830132125 | 6 | 284 | 0.0 | 0.0 | 0.00 | 0.00 | 0.00 | 92 | 1031.9 |
| 20260830131624 | 6 | 287 | 0.0 | 0.0 | 0.00 | 0.00 | 0.00 | 93 | 1031.7 |
| 20260830131119 | 6 | 294 | 0.0 | 0.0 | 0.00 | 0.00 | 0.00 | 92 | 1031.8 |
| 20260830130614 | 6 | 282 | 0.0 | 0.0 | 0.00 | 0.00 | 0.00 | 92 | 1031.8 |
| 20260830130109 | 6 | 292 | 0.0 | 0.0 | 0.00 | 0.00 | 0.00 | 91 | 1031.7 |
| 20260830125608 | 6 | 294 | 0.0 | 0.0 | 0.00 | 0.00 | 0.00 | 92 | 1031.7 |
| 20260830125108 | 6 | 287 | 0.0 | 0.0 | 0.00 | 0.00 | 0.00 | 92 | 1031.7 |
| 20260830124607 | 7 | 259 | 0.0 | 0.0 | 0.00 | 0.00 | 0.00 | 92 | 1031.5 |
| 20260830124102 | 7 | 262 | 0.0 | 0.0 | 0.00 | 0.00 | 0.00 | 92 | 1031.6 |
| 20260830123600 | 7 | 250 | 1.6 | 1.6 | 0.00 | 0.00 | 0.00 | 92 | 1031.9 |
| 20260830123055 | 6 | 100 | 0.0 | 1.6 | 0.00 | 0.00 | 0.00 | 92 | 1031.6 |
| 20260830122551 | 6 | 299 | 0.0 | 0.0 | 0.00 | 0.00 | 0.00 | 91 | 1031.6 |
| 20260830122047 | 6 | 281 | 0.0 | 0.0 | 0.00 | 0.00 | 0.00 | 91 | 1031.4 |
| 20260830121543 | 6 | 277 | 0.0 | 0.0 | 0.00 | 0.00 | 0.00 | 91 | 1031.5 |
| 20260830121042 | 6 | 277 | 0.0 | 0.0 | 0.00 | 0.00 | 0.00 | 90 | 1031.5 |
| 20260830120537 | 6 | 291 | 0.0 | 0.0 | 0.00 | 0.00 | 0.00 | 90 | 1031.6 |
| 20260830120035 | 7 | 291 | 0.0 | 0.0 | 0.00 | 0.00 | 0.00 | 89 | 1031.4 |
| 20260830115530 | 7 | 290 | 0.0 | 0.0 | 0.00 | 0.00 | 0.00 | 89 | 1031.6 |
| 20260830115025 | 7 | 290 | 0.0 | 0.0 | 0.00 | 0.00 | 0.00 | 88 | 1031.6 |
| 20260830114522 | 7 | 290 | 0.0 | 0.0 | 0.00 | 0.00 | 0.00 | 88 | 1031.2 |
| 20260830114021 | 7 | 285 | 0.0 | 0.0 | 0.00 | 0.00 | 0.00 | 88 | 1031.4 |
| 20260830113521 | 8 | 284 | 0.0 | 0.0 | 0.00 | 0.00 | 0.00 | 88 | 1031.3 |
| 20260830113017 | 8 | 278 | 0.0 | 0.0 | 0.00 | 0.00 | 0.00 | 88 | 1031.2 |
| 20260830112513 | 8 | 267 | 0.0 | 0.0 | 0.00 | 0.00 | 0.00 | 88 | 1031.4 |
| 20260830112009 | 8 | 271 | 0.0 | 0.0 | 0.00 | 0.00 | 0.00 | 87 | 1031.4 |
| 20260830111504 | 8 | 254 | 0.0 | 0.0 | 0.00 | 0.00 | 0.00 | 87 | 1031.2 |
| 20260830111000 | 8 | 268 | 0.0 | 0.0 | 0.00 | 0.00 | 0.00 | 86 | 1031.2 |
| 20260830110455 | 8 | 278 | 0.0 | 0.0 | 0.00 | 0.00 | 0.00 | 85 | 1031.3 |
| 20260830105954 | 8 | 274 | 0.0 | 0.0 | 0.00 | 0.00 | 0.00 | 85 | 1031.2 |
| 20260830105451 | 9 | 265 | 0.0 | 0.0 | 0.00 | 0.00 | 0.00 | 84 | 1031.3 |
| 20260830104947 | 9 | 264 | 0.0 | 0.0 | 0.00 | 0.00 | 0.00 | 83 | 1031.4 |
| 20260830104443 | 10 | 275 | 0.0 | 0.0 | 0.00 | 0.00 | 0.00 | 83 | 1031.0 |
| 20260830103938 | 10 | 270 | 0.0 | 0.0 | 0.00 | 0.00 | 0.00 | 83 | 1031.0 |
| 20260830103434 | 10 | 265 | 0.0 | 0.0 | 0.00 | 0.00 | 0.00 | 83 | 1031.0 |
| 20260830102931 | 10 | 269 | 0.0 | 0.0 | 0.00 | 0.00 | 0.00 | 83 | 1031.0 |
| 20260830102427 | 10 | 250 | 0.0 | 1.6 | 0.00 | 0.00 | 0.00 | 83 | 1030.9 |
| 20260830101923 | 10 | 266 | 0.0 | 0.0 | 0.00 | 0.00 | 0.00 | 83 | 1031.0 |
| 20260830101418 | 10 | 264 | 0.0 | 0.0 | 0.00 | 0.00 | 0.00 | 83 | 1030.9 |
| 20260830100918 | 10 | 254 | 1.6 | 1.6 | 0.00 | 0.00 | 0.00 | 83 | 1030.8 |
| 20260830100417 | 10 | 291 | 0.0 | 0.0 | 0.00 | 0.00 | 0.00 | 81 | 1030.8 |
| 20260830095916 | 11 | 298 | 0.0 | 0.0 | 0.00 | 0.00 | 0.00 | 81 | 1030.7 |
| 20260830095412 | 11 | 276 | 0.0 | 0.0 | 0.00 | 0.00 | 0.00 | 80 | 1030.7 |
| 20260830094908 | 11 | 296 | 0.0 | 0.0 | 0.00 | 0.00 | 0.00 | 79 | 1030.4 |
| 20260830094404 | 11 | 300 | 0.0 | 0.0 | 0.00 | 0.00 | 0.00 | 78 | 1030.4 |
| 20260830093900 | 12 | 324 | 0.0 | 0.0 | 0.00 | 0.00 | 0.00 | 77 | 1030.3 |
| 20260830093355 | 12 | 299 | 0.0 | 0.0 | 0.00 | 0.00 | 0.00 | 75 | 1030.2 |
| 20260830092849 | 12 | 2 | 1.6 | 1.6 | 0.00 | 0.00 | 0.00 | 73 | 1030.2 |
| 20260830092346 | 12 | 266 | 0.0 | 0.0 | 0.00 | 0.00 | 0.00 | 69 | 1030.1 |
| 20260830091842 | 13 | 235 | 3.2 | 3.2 | 0.00 | 0.00 | 0.00 | 69 | 1030.4 |
| 20260830091342 | 13 | 263 | 0.0 | 0.0 | 0.00 | 0.00 | 0.00 | 69 | 1030.3 |
| 20260830090841 | 13 | 260 | 0.0 | 0.0 | 0.00 | 0.00 | 0.00 | 68 | 1030.0 |
| 20260830090337 | 13 | 220 | 1.6 | 1.6 | 0.00 | 0.00 | 0.00 | 68 | 1030.1 |
| 20260830085836 | 13 | 238 | 1.6 | 1.6 | 0.00 | 0.00 | 0.00 | 68 | 1029.9 |
| 20260830085331 | 13 | 247 | 3.2 | 3.2 | 0.00 | 0.00 | 0.00 | 68 | 1029.8 |
| 20260830084827 | 13 | 237 | 1.6 | 1.6 | 0.00 | 0.00 | 0.00 | 68 | 1029.9 |
| 20260830084322 | 13 | 188 | 4.8 | 4.8 | 0.00 | 0.00 | 0.00 | 68 | 1030.0 |
| 20260830083817 | 14 | 230 | 1.6 | 1.6 | 0.00 | 0.00 | 0.00 | 68 | 1029.5 |
| 20260830083314 | 14 | 265 | 1.6 | 1.6 | 0.00 | 0.00 | 0.00 | 68 | 1029.7 |
| 20260830082813 | 14 | 198 | 1.6 | 1.6 | 0.00 | 0.00 | 0.00 | 69 | 1029.5 |
| 20260830082308 | 14 | 239 | 1.6 | 1.6 | 0.00 | 0.00 | 0.00 | 69 | 1029.3 |
| 20260830081803 | 15 | 159 | 3.2 | 3.2 | 0.00 | 0.00 | 0.00 | 69 | 1029.4 |
| 20260830081302 | 15 | 244 | 1.6 | 3.2 | 0.00 | 0.00 | 0.00 | 69 | 1029.4 |
| 20260830080757 | 15 | 244 | 3.2 | 3.2 | 0.00 | 0.00 | 0.00 | 69 | 1029.3 |
| 20260830080254 | 15 | 215 | 3.2 | 3.2 | 0.00 | 0.00 | 0.00 | 70 | 1029.3 |
| 20260830075752 | 15 | 210 | 3.2 | 3.2 | 0.00 | 0.00 | 0.00 | 70 | 1029.2 |
| 20260830075248 | 15 | 198 | 1.6 | 3.2 | 0.00 | 0.00 | 0.00 | 70 | 1029.2 |
| 20260830074743 | 15 | 209 | 3.2 | 3.2 | 0.00 | 0.00 | 0.00 | 69 | 1029.1 |
| 20260830074239 | 15 | 197 | 1.6 | 1.6 | 0.00 | 0.00 | 0.00 | 68 | 1029.1 |
| 20260830073735 | 16 | 226 | 1.6 | 3.2 | 0.00 | 0.00 | 0.00 | 67 | 1029.0 |
| 20260830073231 | 16 | 244 | 1.6 | 3.2 | 0.00 | 0.00 | 0.00 | 66 | 1029.0 |